Waarnemingen

Advertentie
Mijn weer
Nancy/Essey, Frankrijk (7180): temperatuur & dauwpunt: 19.09.2017 06:00:00 - 25.09.2017 06:00:00 (CEST)Nancy/Essey, Frankrijk (7180): temperatuur 5cm: 19.09.2017 06:00:00 - 25.09.2017 06:00:00 (CEST)Nancy/Essey, Frankrijk (7180): temperatuur -20cm & temperatuur -100cm: 19.09.2017 06:00:00 - 25.09.2017 06:00:00 (CEST)Nancy/Essey, Frankrijk (7180): windsnelheid & windstoten: 19.09.2017 06:00:00 - 25.09.2017 06:00:00 (CEST)Nancy/Essey, Frankrijk (7180): windrichting: 19.09.2017 06:00:00 - 25.09.2017 06:00:00 (CEST)Nancy/Essey, Frankrijk (7180): luchtdruk: 19.09.2017 06:00:00 - 25.09.2017 06:00:00 (CEST)Nancy/Essey, Frankrijk (7180): zicht: 19.09.2017 06:00:00 - 25.09.2017 06:00:00 (CEST)Nancy/Essey, Frankrijk (7180): Zonneschijnduur: 19.09.2017 06:00:00 - 25.09.2017 06:00:00 (CEST)Nancy/Essey, Frankrijk (7180): neerslag: 19.09.2017 06:00:00 - 25.09.2017 06:00:00 (CEST)
Datum & Tijd tt [°C] td [°C] tt 5cm [°C] tt -20cm [°C] tt -100cm [°C] ff [km/u] ff [kn] fx [km/u] fx [kn] dd ppp [hPa] vv [km] sd [min] rr [mm]
25.09.2017 06:00:00 8,9 8,8 4,9 15,5 16,2 2 1 10 5 ZO 1020,3 2,4 0 0,0
25.09.2017 05:00:00 8,5 8,1 5,4 15,6 16,2 3 2 9 5 O 1020,6 2,5 0 0,2
25.09.2017 04:00:00 10,4 9,9 6,3 15,7 16,2 4 2 9 5 ONO 1020,8 4,0 0 0,0
25.09.2017 03:00:00 9,8 9,2 6,9 15,7 16,2 6 3 14 8 NO 1020,8 3,8 0 0,0
25.09.2017 02:00:00 10,4 9,6 6,9 15,8 16,2 6 3 12 6 ONO 1021,1 7 0 0,0
25.09.2017 01:00:00 11,0 9,7 7,4 15,9 16,2 1 1 13 7 NNO 1021,4 12 0 0,0
25.09.2017 00:00:00 11,4 9,8 8,8 15,9 16,2 9 5 13 7 NO 1021,6 16 0 0,0
24.09.2017 23:00:00 11,9 10,3 8,9 15,9 16,2 12 6 16 8 NO 1021,7 19 0 0,0
24.09.2017 22:00:00 12,3 9,7 9,4 15,9 16,2 3 2 15 8 NNO 1021,8 30 0 0,0
24.09.2017 21:00:00 14,4 10,0 10,5 15,9 16,2 12 7 18 10 NNO 1021,3 39 0 0,0
24.09.2017 20:00:00 14,0 8,8 10,6 15,8 16,3 5 3 10 5 NO 1021,1 60 0 0,0
24.09.2017 19:00:00 17,5 9,4 15,1 15,7 16,3 8 4 13 7 ONO 1020,6 60 56 0,0
24.09.2017 18:00:00 19,8 8,2 22,6 15,6 16,2 9 5 22 12 ONO 1020,3 57 60 0,0
24.09.2017 17:00:00 20,4 9,0 19,9 15,5 16,2 10 6 21 11 ONO 1020,3 51 53 0,0
24.09.2017 16:00:00 19,8 9,4 19,4 15,4 16,3 9 5 19 10 ONO 1020,5 57 53 0,0
24.09.2017 15:00:00 20,1 11,3 19,6 15,3 16,2 9 5 22 12 NNO 1020,8 48 54 0,0
24.09.2017 14:00:00 19,4 12,6 23,9 15,2 16,3 9 5 23 12 ONO 1021,2 19 60 0,0
24.09.2017 13:00:00 18,0 12,0 23,4 15,2 16,3 10 6 18 10 NO 1021,5 17 60 0,0
24.09.2017 12:00:00 16,5 12,1 22,6 15,2 16,2 5 3 13 7 NO 1021,9 12 60 0,0
24.09.2017 11:00:00 15,2 11,4 18,7 15,3 16,3 2 1 10 5 ZZO 1022,2 8 60 0,0
24.09.2017 10:00:00 13,4 10,4 12,2 15,4 16,2 2 1 6 4 Z 1022,4 7 60 0,0
24.09.2017 09:00:00 9,5 9,0 5,9 15,4 16,2 3 2 5 3 ZO 1022,5 4,5 60 0,0
24.09.2017 08:00:00 7,5 7,4 3,8 15,5 16,3 3 2 8 4 ZZO 1022,5 3,1 0 0,0
24.09.2017 07:00:00 7,7 7,4 3,9 15,6 16,3 4 2 6 3 ZZW 1022,1 6 0 0,0
24.09.2017 06:00:00 7,6 7,3 4,8 15,7 16,2 1 0 4 2 NNO 1021,9 0,7 0 0,0
24.09.2017 05:00:00 7,9 7,5 4,8 15,8 16,3 3 2 4 2 NO 1021,6 0,4 0 0,0
24.09.2017 04:00:00 8,6 8,0 5,5 15,9 16,3 2 1 6 3 NW 1021,7 0,3 0 0,0
24.09.2017 03:00:00 9,7 9,1 6,0 15,9 16,2 3 2 6 3 NNW 1021,8 8 0 0,0
24.09.2017 02:00:00 9,9 9,0 7,0 16,0 16,3 3 1 5 3 NNO 1021,8 9 0 0,0
24.09.2017 01:00:00 11,9 10,5 8,8 16,0 16,3 2 1 7 4 NO 1021,5 15 0 0,0
24.09.2017 00:00:00 12,5 10,7 9,5 16,0 16,3 2 1 10 5 NO 1021,7 19 0 0,0
23.09.2017 23:00:00 13,1 10,8 11,4 16,0 16,3 6 4 17 9 NO 1021,5 19 0 0,0
23.09.2017 22:00:00 14,1 11,3 11,9 16,0 16,3 11 6 15 8 NO 1021,7 25 0 0,0
23.09.2017 21:00:00 15,3 11,9 12,9 15,9 16,3 11 6 14 8 NO 1021,2 30 0 0,0
23.09.2017 20:00:00 16,1 11,5 14,2 15,9 16,3 3 1 8 5 N 1020,9 44 0 0,0
23.09.2017 19:00:00 17,4 11,9 16,3 15,8 16,3 6 3 14 7 ONO 1020,5 59 0 0,0
23.09.2017 18:00:00 18,5 12,0 18,1 15,7 16,3 11 6 18 10 NO 1020,5 59 0 0,0
23.09.2017 17:00:00 19,5 10,5 20,4 15,6 16,3 10 6 20 11 NO 1020,7 59 0 0,0
23.09.2017 16:00:00 20,0 12,0 22,0 15,4 16,3 9 5 20 11 NO 1020,9 60 53 0,0
23.09.2017 15:00:00 20,5 12,2 20,2 15,4 16,3 10 5 19 10 NO 1021,4 19 36 0,0
23.09.2017 14:00:00 19,2 12,5 21,6 15,3 16,3 10 5 18 10 NO 1021,8 19 56 0,0
23.09.2017 13:00:00 18,4 12,8 23,1 15,3 16,3 9 5 17 9 NNO 1022,2 19 60 0,0
23.09.2017 12:00:00 16,9 12,0 18,7 15,3 16,3 6 4 12 6 ONO 1022,7 16 56 0,0
23.09.2017 11:00:00 15,5 11,9 20,7 15,3 16,3 5 3 11 6 ONO 1023,3 12 60 0,0
23.09.2017 10:00:00 14,2 11,2 14,6 15,4 16,3 3 2 7 4 NNO 1023,5 11 42 0,0
23.09.2017 09:00:00 11,6 10,3 7,5 15,4 16,3 2 1 9 5 NO 1023,5 7 47 0,0
23.09.2017 08:00:00 8,8 8,3 5,7 15,5 16,3 0 0 8 4 ZO 1023,8 4,7 9 0,0
23.09.2017 07:00:00 9,1 8,2 6,2 15,5 16,3 2 1 11 6 W 1023,6 1,6 0 0,0
23.09.2017 06:00:00 11,7 10,3 9,6 15,6 16,3 7 4 11 6 WNW 1023,2 14 0 0,0
23.09.2017 05:00:00 12,5 10,7 10,9 15,5 16,3 4 2 12 7 W 1023,2 18 0 0,0
23.09.2017 04:00:00 13,3 10,7 11,9 15,6 16,3 5 3 11 6 W 1023,2 27 0 0,0
23.09.2017 03:00:00 13,7 10,9 10,7 15,6 16,3 6 3 11 6 WNW 1023,3 29 0 0,0
23.09.2017 02:00:00 12,6 10,3 10,8 15,6 16,3 3 2 12 7 ZZW 1023,5 32 0 0,0
23.09.2017 01:00:00 14,5 10,5 11,9 15,6 16,3 6 3 14 7 W 1023,1 41 0 0,0
23.09.2017 00:00:00 14,8 10,0 11,9 15,7 16,3 3 2 13 7 N 1023,1 45 0 0,0
22.09.2017 23:00:00 16,0 10,5 14,3 15,6 16,3 6 3 10 5 WNW 1023,1 17 0 0,0
22.09.2017 22:00:00 16,5 10,3 15,1 15,6 16,3 5 3 9 5 WZW 1022,5 58 0 0,0
22.09.2017 21:00:00 16,9 10,0 15,3 15,5 16,3 5 3 14 8 WNW 1022,1 60 0 0,0
22.09.2017 20:00:00 17,7 9,3 15,7 15,5 16,4 8 5 20 11 NW 1021,5 60 0 0,0
22.09.2017 19:00:00 19,7 9,0 18,3 15,3 16,4 11 6 22 12 WNW 1020,8 60 56 0,0
22.09.2017 18:00:00 21,0 9,6 22,6 15,2 16,4 11 6 21 11 WNW 1020,2 50 60 0,0
22.09.2017 17:00:00 21,7 9,2 23,3 15,1 16,4 10 5 23 12 W 1020,2 55 60 0,0
22.09.2017 16:00:00 21,9 9,1 24,9 14,9 16,4 11 6 23 12 W 1020,2 51 60 0,0
22.09.2017 15:00:00 21,8 9,0 26,0 14,8 16,4 12 7 23 13 WZW 1020,1 20 60 0,0
22.09.2017 14:00:00 20,4 10,8 26,0 14,7 16,4 4 2 15 8 NO 1020,3 18 60 0,0
22.09.2017 13:00:00 19,5 11,0 25,0 14,7 16,4 4 2 13 7 WZW 1020,6 36 60 0,0
22.09.2017 12:00:00 17,9 11,2 21,8 14,7 16,4 3 2 12 7 ZZW 1020,8 18 60 0,0
22.09.2017 11:00:00 14,7 10,1 19,0 14,7 16,4 5 3 13 7 ZZW 1021,1 8 60 0,0
22.09.2017 10:00:00 12,6 9,2 12,2 14,8 16,4 4 2 7 4 ZZO 1021,3 12 60 0,0
22.09.2017 09:00:00 9,6 8,4 5,3 14,9 16,4 3 1 10 5 ZO 1021,3 9 60 0,0
22.09.2017 08:00:00 6,4 6,1 3,8 14,9 16,4 4 2 5 3 O 1021,3 0,7 3 0,0
22.09.2017 07:00:00 6,4 6,1 3,9 15,0 16,4 2 1 5 3 OZO 1020,9 2,2 0 0,0
22.09.2017 06:00:00 6,5 6,2 4,1 15,1 16,4 1 1 5 3 OZO 1020,7 4,5 0 0,0
22.09.2017 05:00:00 6,7 6,1 4,4 15,2 16,5 3 2 5 3 O 1020,7 4,6 0 0,0
22.09.2017 04:00:00 7,9 7,5 5,8 15,2 16,4 3 2 6 3 OZO 1020,5 6 0 0,0
22.09.2017 03:00:00 8,2 7,6 6,5 15,3 16,4 2 1 6 3 OZO 1020,7 12 0 0,0
22.09.2017 02:00:00 8,1 7,3 6,3 15,3 16,4 3 1 4 2 OZO 1020,8 19 0 0,0
22.09.2017 01:00:00 8,5 7,9 5,8 15,4 16,5 3 2 6 3 ZO 1020,6 15 0 0,0
22.09.2017 00:00:00 8,9 7,7 6,1 15,4 16,5 2 1 5 3 O 1020,4 20 0 0,0
21.09.2017 23:00:00 9,7 7,8 7,1 15,4 16,5 3 1 4 2 O 1020,2 24 0 0,0
21.09.2017 22:00:00 11,9 9,1 8,8 15,4 16,5 2 1 6 3 ONO 1019,9 35 0 0,0
21.09.2017 21:00:00 13,3 9,5 9,9 15,3 16,5 3 2 7 4 NNO 1019,6 34 0 0,0
21.09.2017 20:00:00 15,0 9,8 11,5 15,2 16,5 4 2 10 5 ONO 1019,1 60 0 0,0
21.09.2017 19:00:00 16,6 10,9 15,4 15,1 16,5 8 5 12 6 ONO 1018,7 60 55 0,0
21.09.2017 18:00:00 19,2 9,4 22,4 15,0 16,5 2 1 16 9 NO 1018,5 33 60 0,0
21.09.2017 17:00:00 18,7 9,7 22,4 14,8 16,5 9 5 18 10 O 1018,5 19 60 0,0
21.09.2017 16:00:00 18,6 7,4 22,3 14,7 16,5 8 5 16 9 O 1018,9 59 60 0,0
21.09.2017 15:00:00 17,9 9,5 22,9 14,6 16,5 6 3 16 9 ONO 1019,5 53 60 0,0
21.09.2017 14:00:00 16,9 8,3 22,7 14,6 16,5 9 5 21 11 NNO 1019,9 60 60 0,0
21.09.2017 13:00:00 15,0 9,8 19,6 14,6 16,5 4 2 9 5 N 1020,7 20 60 0,0
21.09.2017 12:00:00 11,5 10,1 12,6 14,6 16,5 4 2 12 7 Z 1021,6 13 48 0,0
21.09.2017 11:00:00 8,5 8,4 9,1 14,6 16,5 4 2 10 5 ZO 1022,3 2,6 1 0,0
21.09.2017 10:00:00 6,7 6,7 7,0 14,6 16,6 3 1 6 4 WNW 1022,8 0,2 0 0,0
21.09.2017 09:00:00 6,1 6,1 6,0 14,7 16,5 2 1 7 4 O 1022,6 0,1 0 0,0
21.09.2017 08:00:00 5,7 5,6 5,9 14,7 16,5 2 1 6 4 ZO 1022,4 - 0 0,0
21.09.2017 07:00:00 6,0 5,9 6,0 14,8 16,6 3 2 7 4 ZO 1022,5 - 0 0,0
21.09.2017 06:00:00 6,1 6,0 6,1 14,8 16,5 4 2 6 3 ZZO 1022,4 0,2 0 0,2
21.09.2017 05:00:00 6,5 6,4 5,1 14,9 16,5 3 1 5 3 Z 1022,5 0,1 0 0,0
21.09.2017 04:00:00 6,0 5,9 3,7 15,0 16,6 1 0 3 2 N 1022,7 0,1 0 0,0
21.09.2017 03:00:00 5,8 5,5 3,4 15,1 16,5 1 1 5 3 ZZO 1023,1 1,7 0 0,0
21.09.2017 02:00:00 5,5 5,1 3,1 15,2 16,6 3 2 4 2 O 1023,1 1,8 0 0,0
21.09.2017 01:00:00 7,0 6,7 3,9 15,2 16,6 1 0 3 2 NW 1023,1 0,3 0 0,0
21.09.2017 00:00:00 7,2 6,8 4,6 15,3 16,6 1 1 7 4 O 1023,0 3,8 0 0,0
20.09.2017 23:00:00 7,8 7,0 5,1 15,3 16,6 2 1 4 2 O 1023,1 3,9 0 0,0
20.09.2017 22:00:00 8,9 8,0 6,1 15,3 16,6 4 2 7 4 O 1022,8 17 0 0,0
20.09.2017 21:00:00 10,4 8,8 7,1 15,2 16,6 1 1 7 4 N 1022,8 24 0 0,0
20.09.2017 20:00:00 12,5 9,1 9,4 15,2 16,6 5 3 10 5 OZO 1022,3 54 0 0,0
20.09.2017 19:00:00 14,9 9,3 14,0 15,1 16,6 5 3 11 6 Z 1021,8 59 13 0,0
20.09.2017 18:00:00 15,7 8,9 16,3 15,1 16,6 7 4 21 11 ZZW 1021,9 60 7 0,0
20.09.2017 17:00:00 15,8 8,8 16,4 15,0 16,6 7 4 19 11 ZZO 1022,0 60 2 0,0
20.09.2017 16:00:00 15,3 9,0 16,0 14,9 16,6 9 5 21 11 ZZO 1022,3 59 22 0,0
20.09.2017 15:00:00 15,5 10,0 16,1 14,9 16,7 11 6 18 10 ZZO 1022,8 34 41 0,0
20.09.2017 14:00:00 14,4 9,2 17,1 14,9 16,7 6 4 14 8 ZO 1023,5 39 37 0,0
20.09.2017 13:00:00 13,1 9,0 12,0 14,8 16,6 3 2 18 10 W 1024,0 20 1 0,0
20.09.2017 12:00:00 11,4 9,1 11,5 14,9 16,7 10 5 21 12 WNW 1024,3 18 0 0,0
20.09.2017 11:00:00 10,9 9,8 11,0 14,9 16,7 9 5 14 8 W 1024,2 7 0 0,0
20.09.2017 10:00:00 10,5 9,6 10,6 15,0 16,7 9 5 18 10 ZW 1024,2 8 0 0,0
20.09.2017 09:00:00 10,0 9,2 9,5 15,0 16,7 6 4 16 9 WZW 1023,9 8 0 0,0
20.09.2017 08:00:00 9,6 9,0 8,0 15,1 16,7 7 4 15 8 W 1023,5 8 0 0,0
20.09.2017 07:00:00 8,4 8,1 7,5 15,1 16,7 4 2 7 4 Z 1023,1 9 0 0,0
20.09.2017 06:00:00 7,9 7,6 5,4 15,2 16,7 3 1 8 4 WZW 1023,2 9 0 0,0
20.09.2017 05:00:00 7,2 6,6 5,5 15,3 16,7 3 1 6 3 ZO 1023,2 8 0 0,0
20.09.2017 04:00:00 7,8 7,5 4,5 15,3 16,7 3 2 8 5 W 1023,3 13 0 0,0
20.09.2017 03:00:00 6,6 5,9 4,2 15,4 16,7 3 2 10 5 O 1023,2 8 0 0,0
20.09.2017 02:00:00 9,2 8,7 5,9 15,4 16,7 4 2 11 6 WZW 1022,9 18 0 0,0
20.09.2017 01:00:00 10,0 8,9 7,7 15,4 16,7 6 3 12 6 W 1022,8 24 0 0,0
20.09.2017 00:00:00 11,0 9,4 9,7 15,4 16,8 8 4 18 10 WNW 1022,8 42 0 0,0
19.09.2017 23:00:00 11,8 9,5 11,2 15,4 16,8 7 4 19 10 WNW 1022,6 60 0 0,0
19.09.2017 22:00:00 12,0 9,2 10,7 15,5 16,8 10 5 18 10 W 1022,3 60 0 0,0
19.09.2017 21:00:00 12,2 8,8 9,7 15,4 16,8 8 5 15 8 WNW 1021,9 60 0 0,0
19.09.2017 20:00:00 13,3 8,6 12,2 15,4 16,8 6 3 24 13 WNW 1021,0 60 0 0,0
19.09.2017 19:00:00 14,3 7,8 13,8 15,3 16,8 13 7 22 12 WNW 1020,3 60 1 0,0
19.09.2017 18:00:00 14,4 7,7 14,2 15,3 16,8 11 6 28 15 WNW 1019,8 60 20 0,0
19.09.2017 17:00:00 16,0 7,7 17,4 15,3 16,8 18 10 32 17 WNW 1019,3 58 60 0,0
19.09.2017 16:00:00 14,7 8,6 12,4 15,2 16,8 12 6 35 19 WNW 1019,5 40 25 0,0
19.09.2017 15:00:00 13,8 8,2 13,9 15,2 16,8 19 10 35 19 WNW 1019,5 54 24 0,0
19.09.2017 14:00:00 14,7 7,5 14,4 15,2 16,8 16 9 30 16 W 1019,3 58 28 0,0
19.09.2017 13:00:00 13,6 8,4 14,2 15,2 16,8 13 7 26 14 NW 1019,5 57 24 0,0
19.09.2017 12:00:00 12,9 9,0 13,6 15,2 16,8 14 8 29 15 WNW 1019,5 53 4 0,0
19.09.2017 11:00:00 12,1 8,9 12,2 15,2 16,8 7 4 16 9 WNW 1019,3 43 0 0,0
19.09.2017 10:00:00 11,3 8,9 11,2 15,2 16,8 7 4 16 9 W 1019,3 20 0 0,0
19.09.2017 09:00:00 10,7 8,8 10,3 15,3 16,8 8 4 13 7 WZW 1018,9 17 0 0,0
19.09.2017 08:00:00 10,3 8,7 9,8 15,3 16,9 6 3 14 8 WZW 1018,8 17 0 0,0
19.09.2017 07:00:00 10,0 8,6 9,7 15,3 16,8 7 4 18 10 W 1018,7 18 0 0,0
19.09.2017 06:00:00 10,0 8,6 9,6 15,4 16,9 8 4 18 10 WZW 1018,4 27 0 0,0

tt = temperatuur
td = dauwpunt
tt 5cm = temperatuur 5cm
tt -20cm = temperatuur -20cm
tt -100cm = temperatuur -100cm
ff = windsnelheid
fx = windstoten
dd = windrichting
ppp = luchtdruk
vv = zicht
sd = Zonneschijnduur
rr = neerslag

Weerstations in de omgeving